TimeCST,TemperatureF,Dew PointF,Humidity,Sea Level PressureIn,VisibilityMPH,Wind Direction,Wind SpeedMPH,Gust SpeedMPH,PrecipitationIn,Events,Conditions,WindDirDegrees,DateUTC
12:53 AM,43.0,39.0,86,30.27,8.0,Calm,Calm,-,N/A,,Clear,0,2012-11-30 06:53:00
1:53 AM,41.0,39.0,93,30.27,5.0,Calm,Calm,-,N/A,,Clear,0,2012-11-30 07:53:00
2:53 AM,43.0,39.9,89,30.26,6.0,Calm,Calm,-,N/A,,Clear,0,2012-11-30 08:53:00
3:53 AM,39.0,37.0,93,30.25,4.0,Calm,Calm,-,N/A,,Clear,0,2012-11-30 09:53:00
4:53 AM,42.1,39.9,92,30.25,5.0,SE,3.5,-,N/A,,Clear,130,2012-11-30 10:53:00
5:53 AM,37.9,36.0,93,30.27,2.5,Calm,Calm,-,N/A,,Clear,0,2012-11-30 11:53:00
6:09 AM,37.4,35.6,93,30.28,4.0,Calm,Calm,-,N/A,,Clear,0,2012-11-30 12:09:00
6:16 AM,37.4,37.4,100,30.29,1.8,Calm,Calm,-,N/A,,Clear,0,2012-11-30 12:16:00
6:31 AM,39.2,37.4,93,30.29,2.5,Calm,Calm,-,N/A,,Clear,0,2012-11-30 12:31:00
6:53 AM,37.9,37.0,97,30.28,1.2,Calm,Calm,-,N/A,,Clear,0,2012-11-30 12:53:00
7:00 AM,37.4,35.6,93,30.29,3.0,Calm,Calm,-,N/A,,Clear,0,2012-11-30 13:00:00
7:09 AM,37.4,37.4,100,30.29,2.0,SE,3.5,-,N/A,,Clear,130,2012-11-30 13:09:00
7:40 AM,41.0,39.2,93,30.30,3.0,SE,3.5,-,N/A,,Clear,130,2012-11-30 13:40:00
7:53 AM,43.0,42.1,97,30.30,2.5,Calm,Calm,-,N/A,,Clear,0,2012-11-30 13:53:00
8:01 AM,44.6,42.8,93,30.30,3.0,Calm,Calm,-,N/A,,Clear,0,2012-11-30 14:01:00
8:53 AM,50.0,45.0,83,30.30,5.0,SE,6.9,-,N/A,,Haze,140,2012-11-30 14:53:00
9:53 AM,57.0,46.9,69,30.30,9.0,SE,9.2,-,N/A,,Clear,140,2012-11-30 15:53:00
10:53 AM,62.1,48.9,62,30.29,10.0,SE,5.8,-,N/A,,Clear,140,2012-11-30 16:53:00
11:53 AM,64.0,50.0,60,30.25,10.0,Calm,Calm,-,N/A,,Clear,0,2012-11-30 17:53:00
12:53 PM,66.9,48.9,52,30.22,10.0,Calm,Calm,-,N/A,,Clear,0,2012-11-30 18:53:00
1:53 PM,68.0,46.9,47,30.19,10.0,Calm,Calm,-,N/A,,Clear,0,2012-11-30 19:53:00
2:53 PM,69.1,44.1,40,30.19,10.0,South,4.6,-,N/A,,Clear,190,2012-11-30 20:53:00
3:53 PM,68.0,45.0,43,30.19,10.0,SE,3.5,-,N/A,,Clear,140,2012-11-30 21:53:00
4:53 PM,64.9,46.0,50,30.19,10.0,ESE,3.5,-,N/A,,Clear,110,2012-11-30 22:53:00
6:53 PM,54.0,46.9,77,30.21,10.0,Calm,Calm,-,N/A,,Clear,0,2012-12-01 00:53:00
7:53 PM,53.1,46.0,77,30.21,10.0,Calm,Calm,-,N/A,,Clear,0,2012-12-01 01:53:00
8:53 PM,50.0,46.0,86,30.21,10.0,Calm,Calm,-,N/A,,Clear,0,2012-12-01 02:53:00
10:53 PM,48.9,46.0,90,30.21,8.0,Calm,Calm,-,N/A,,Clear,0,2012-12-01 04:53:00
11:53 PM,48.0,45.0,89,30.21,7.0,Calm,Calm,-,N/A,,Clear,0,2012-12-01 05:53:00